Theta_e
298 297 297 298 298 298 298 298 299 299 299 298 298 297 297 295 294 294 293 292 291 291
294 294 295 295 296 296 296 296 296 296 295 294 293 292 291 290 289 289 288 288 288 287
291 291 291 292 291 291 292 292 292 291 290 290 289 288 288 287 287 286 286 286 285 285
289 289 289 288 288 288 288 288 288 288 287 287 287 286 285 285 284 283 283 283 283 282
287 287 287 286 286 286 286 287 286 286 286 285 285 285 283 282 282 282 281 281 281 281
285 285 285 285 285 285 284 284 285 284 284 284 284 283 283 282 281 280 280 280 280 280
284 284 284 284 284 284 283 283 283 283 283 283 283 283 282 281 280 279 279 280 280 280
284 284 284 284 284 283 283 283 283 282 283 282 282 282 281 281 280 279 279 279 279 279
283 283 283 283 282 282 282 282 281 281 281 281 283 284 284 281 279 279 279 278 278 279
282 282 282 281 281 281 280 280 280 281 281 281 282 285 283 281 278 278 277 277 278 278
282 281 281 280 280 280 280 279 279 280 280 281 282 285 283 280 278 277 277 277 277 277
281 281 281 280 279 279 279 279 279 280 280 280 281 284 283 279 277 277 277 277 277 277
282 282 281 280 279 279 278 279 280 280 279 278 280 285 283 280 278 276 276 277 278 280
282 282 281 280 280 279 279 279 278 279 278 279 279 281 284 282 279 277 276 276 275 277
Wind_Speed
15 11 10 12 9 9 8 8 10 12 12 12 13 12 11 9 9 11 10 12 10 7
12 13 12 13 11 8 9 9 12 12 13 12 14 12 11 10 11 11 10 10 10 8
10 12 11 10 11 11 10 11 12 12 12 11 12 11 12 10 10 11 9 8 10 9
9 11 11 10 10 10 10 10 11 11 11 11 11 11 12 12 11 13 10 9 10 11
8 9 10 10 10 9 10 10 10 9 11 12 11 10 11 12 10 10 11 9 9 9
8 8 9 9 9 9 9 9 9 9 11 10 9 10 10 10 10 10 9 8 8 7
6 6 7 7 7 9 8 9 8 7 8 8 9 9 9 10 9 9 8 8 7 6
6 6 7 7 8 7 8 7 6 6 6 6 7 6 8 8 8 8 8 8 7 7
5 6 6 6 6 7 7 7 6 6 5 6 5 12 13 9 7 7 7 7 6 6
6 6 6 6 6 6 5 6 6 5 5 6 6 14 13 12 6 6 5 5 4 6
7 6 6 6 6 5 4 6 5 4 3 4 4 13 16 15 7 7 7 5 5 4
7 8 7 7 7 5 5 4 4 4 4 3 4 11 11 7 6 8 6 5 3 4
9 9 8 7 7 5 5 4 4 5 4 3 4 10 11 8 5 6 4 3 3 6
8 9 8 7 4 6 8 7 5 5 3 4 4 5 10 10 3 4 5 4 2 1
Wind_Direction
49 51 52 55 62 65 66 70 75 73 67 69 70 70 74 74 69 66 66 70 66 67
54 58 53 51 56 58 66 69 65 69 79 74 76 77 76 73 71 67 65 62 62 64
55 56 60 57 57 57 57 63 71 70 69 70 77 77 83 79 73 80 69 67 64 58
63 63 63 62 51 52 55 58 67 69 70 69 69 73 80 78 76 78 77 67 69 64
67 73 75 68 61 49 60 51 59 70 73 69 67 69 74 81 77 82 80 76 76 69
68 74 72 72 71 70 67 62 59 64 73 80 79 77 76 79 80 79 77 73 75 71
82 75 76 77 69 73 72 70 62 61 77 83 92 96 98 96 92 85 76 70 65 59
105 94 88 82 82 81 79 72 65 71 62 76 90 101 103 108 106 103 98 84 74 49
98 99 98 96 95 93 88 80 77 66 67 65 75 109 109 97 98 95 96 93 82 81
133 126 122 115 103 99 102 96 84 77 81 103 111 117 111 103 92 90 79 81 88 88
148 143 139 130 123 126 116 109 108 100 108 115 121 129 126 117 107 92 73 62 53 67
161 153 153 150 147 131 119 112 104 93 64 69 101 133 125 97 81 94 91 97 75 59
166 163 162 158 157 136 126 115 113 121 127 125 144 151 148 141 138 129 120 95 95 100
172 167 157 150 156 144 142 140 143 138 163 146 137 158 165 163 158 153 162 144 157 142